Other Public Products
Issued by NWS Charleston, SC

Current Version | Previous Version | Graphics & Text | Print | Product List | Glossary On
Versions: 1 2 3 4 5 6 7 8 9 10 11 12 13 14 15 16 17 18 19 20 21 22 23 24 25 26 27 28 29 30 31 32 33 34 35 36 37 38 39 40 41 42 43 44 45 46 47 48 49 50
397
FPUS82 KCHS 181827
OPUCHS

TEST...KCHS/KSAV Gateway Observations...TEST
National Weather Service Charleston SC
200 PM EDT FRI AUG 18 2017

NOTE: "fair" indicates few or no clouds below 12,000 feet with no
significant weather and/or obstructions to visibility.

SCZ050-WAZ558-NCZ071-TXZ119-213-PAZ071-DCZ001-FLZ074-172-MI076-
NYZ176-178-MAZ016-IL014-TNZ027-NJZ106-GAZ044-MD014-181900-

...Gateway Observations for Charleston International...

CITY           SKY/WX    TMP DP  RH WIND       PRES   REMARKS
Chas Airport   MOSUNNY   94  75  54 SW9       29.94F HX 105
6HR MIN TEMP:  81; 6HR MAX TEMP:  94;

Seattle        PTSUNNY   63  54  72 VRB7      30.19S
6HR MIN TEMP:  55; 6HR MAX TEMP:  64;

Charlotte      MOSUNNY   91  74  57 SW5       29.93F HX 100
6HR MIN TEMP:  78; 6HR MAX TEMP:  91;

Dallas DFW     CLOUDY    92  74  55 W10       30.03F HX 101
6HR MIN TEMP:  77; 6HR MAX TEMP:  92;

Dallas Love    CLOUDY    87  76  69 S5        30.04S HX  97
6HR MIN TEMP:  78; 6HR MAX TEMP:  91; 6HR PCP:  0.01;

Philladelphia  PTSUNNY   85  76  74 W10       29.82F HX  94
6HR MIN TEMP:  77; 6HR MAX TEMP:  84;

Wash National  MOSUNNY   89  80  74 S12       29.81F HX 106
6HR MIN TEMP:  78; 6HR MAX TEMP:  89;

Baltimore      MOSUNNY   89  77  67 SW6       29.81F HX 101
6HR MIN TEMP:  76; 6HR MAX TEMP:  91; 6HR PCP: TRACE;

Miami          MOSUNNY   94  74  52 SE9G16    30.01F HX 104
6HR MIN TEMP:  86; 6HR MAX TEMP:  94;

Detroit        CLOUDY    77  63  61 W15G22    29.80R
6HR MIN TEMP:  70; 6HR MAX TEMP:  80;

Newark         LGT RAIN  80  76  87 S8        29.83F
6HR MIN TEMP:  73; 6HR MAX TEMP:  81; 6HR PCP:  0.23;

Laguardia      LGT RAIN  81  77  88 S13       29.83F
6HR MIN TEMP:  73; 6HR MAX TEMP:  82; 6HR PCP:  0.86;

J F K          CLOUDY    79  78  97 S17       29.86S
6HR MIN TEMP:  75; 6HR MAX TEMP:  81; 6HR PCP:  0.24;

Boston Logan   CLOUDY    79  69  71 S20G28    29.86
6HR MIN TEMP:  68; 6HR MAX TEMP:  80; 6HR PCP: TRACE;

Ft. Lauderdale MOSUNNY   91  77  63 E13       30.00F HX 104
6HR MIN TEMP:  85; 6HR MAX TEMP:  91;

Chicago O`Hare PTSUNNY   78  60  53 W9G20     29.87F
6HR MIN TEMP:  67; 6HR MAX TEMP:  79;

Chicago Midway PTSUNNY   78  60  53 W12G21    29.87F
6HR MIN TEMP:  68; 6HR MAX TEMP:  79;

Houston Bush   MOSUNNY   94  75  54 SW8       30.03F HX 105
6HR MIN TEMP:  78; 6HR MAX TEMP:  94;

Houston Hobby  MOSUNNY   95  73  48 S7        30.02F HX 104
6HR MIN TEMP:  80; 6HR MAX TEMP:  96;

Nashville      PTSUNNY   87  64  46 W12       30.00S
6HR MIN TEMP:  76; 6HR MAX TEMP:  87;

Atlanta        MOSUNNY   86  69  56 NW13      30.00F HX  90
6HR MIN TEMP:  75; 6HR MAX TEMP:  87;


$$

GAZ044-118-TXZ119-213-NCZ071-DCZ001-MDZ014-506-PAZ021-071-NJZ106-
NYZ176-178-MAZ106-OHZ011-021-055-MIZ076-KYZ091-ILZ014-INZ047-
MNZ060-ONZ431-181900-

...Gateway Observations for Savannah International...

CITY           SKY/WX    TMP DP  RH WIND       PRES   REMARKS
Savannah Arpt  MOSUNNY   95  71  45 W9        29.96F HX 102
6HR MIN TEMP:  79; 6HR MAX TEMP:  96;

Atlanta        MOSUNNY   86  69  56 NW13      30.00F HX  90
6HR MIN TEMP:  75; 6HR MAX TEMP:  87;

Charlotte      MOSUNNY   91  74  57 SW5       29.93F HX 100
6HR MIN TEMP:  78; 6HR MAX TEMP:  91;

Dallas DFW     CLOUDY    92  74  55 W10       30.03F HX 101
6HR MIN TEMP:  77; 6HR MAX TEMP:  92;

Houston Bush   MOSUNNY   94  75  54 SW8       30.03F HX 105
6HR MIN TEMP:  78; 6HR MAX TEMP:  94;

Wash National  MOSUNNY   89  80  74 S12       29.81F HX 106
6HR MIN TEMP:  78; 6HR MAX TEMP:  89;

Wash Dulles    PTSUNNY   90  75  61 S8        29.81F HX 100
6HR MIN TEMP:  77; 6HR MAX TEMP:  91;

Baltimore      MOSUNNY   89  77  67 SW6       29.81F HX 101
6HR MIN TEMP:  76; 6HR MAX TEMP:  91; 6HR PCP: TRACE;

Philadelphia   PTSUNNY   85  76  74 W10       29.82F HX  94
6HR MIN TEMP:  77; 6HR MAX TEMP:  84;

Newark         LGT RAIN  80  76  87 S8        29.83F
6HR MIN TEMP:  73; 6HR MAX TEMP:  81; 6HR PCP:  0.23;

Laguardia      LGT RAIN  81  77  88 S13       29.83F
6HR MIN TEMP:  73; 6HR MAX TEMP:  82; 6HR PCP:  0.86;

J F K          CLOUDY    79  78  97 S17       29.86S
6HR MIN TEMP:  75; 6HR MAX TEMP:  81; 6HR PCP:  0.24;

Boston         CLOUDY    79  69  71 S20G28    29.86
6HR MIN TEMP:  68; 6HR MAX TEMP:  80; 6HR PCP: TRACE;

Pittsburg      MOSUNNY   82  68  62 W10G20    29.83F
6HR MIN TEMP:  72; 6HR MAX TEMP:  84; 6HR PCP:  0.06;

Akron          NOT AVBL
Cleveland      CLOUDY    83  63  50 W17       29.83S
6HR MIN TEMP:  74; 6HR MAX TEMP:  85;

Cincinnati     PTSUNNY   83  67  58 W10       29.93S
6HR MIN TEMP:  73; 6HR MAX TEMP:  83;

Columbus       PTSUNNY   83  65  54 W13G20    29.88S
Detroit        CLOUDY    77  63  61 W15G22    29.80R
6HR MIN TEMP:  70; 6HR MAX TEMP:  80;

Chicago O`Hare PTSUNNY   78  60  53 W9G20     29.87F
6HR MIN TEMP:  67; 6HR MAX TEMP:  79;

Minneapolis    LGT RAIN  65  61  87 W7        29.92S
6HR MIN TEMP:  62; 6HR MAX TEMP:  67; 6HR PCP:  0.05;

Indianapolis   PTSUNNY   81  62  52 W15G21    29.92F
6HR MIN TEMP:  67; 6HR MAX TEMP:  83;

Toronto Canada PTSUNNY   75  64  69 W15G22    29.69R

$$




USA.gov is the U.S. government's official web portal to all federal, state and local government web resources and services.